Mar del Plata, Argentina

10:55 AM America en Septiembre 20, 2017 (GMT +0000)
Mar Del Plata International

Tiempo Historia de SAZM - Septiembre, 2017

Change the Weather History Date:

Miércoles, Septiembre 13, 2017

  Actual Average Record
Temperature  
Temperatura media 54 ° F -  
Temperatura máxima 65 ° F 63 ° F 75 ° F (2012)
Temperatura mínima 44 ° F 44 ° F 30 ° F (2006)
Degree Days  
Grados día de calefacción 10    
Growing Degree Days 4 (Base 50)    
Moisture  
Punto de rocío 48 ° F    
Average Humidity 77    
Maximum Humidity 98    
Minimum Humidity 47    
Precipitación  
Precipitación 0.00 pul 0.09 pul - ()
Presión al nivel del mar  
Presión al nivel del mar 30.05 pul    
Viento  
Velocidad del viento 8 mph ()    
Velocidad máxima del viento 17 mph    
Max Gust Speed -    
Visibilidad 6.1 Millas    
Eventos      
Averages and records for this station are not official NWS values.
T = Trace of Precipitation, MM = Missing Value Source: Averaged Metar Reports

Daily Weather History Graph

Daily Weather History Graph

Search for Another Location

Airport or City:

Trip Planner

Search our weather history database for the weather conditions in past years. The results will help you decide how hot, cold, wet, or windy it might be!

Date:

Astronomía

Sep. 13, 2017 Salida Puesta
Hora real 6:53 AM -03 6:39 PM -03
Crepúsculo civil 6:27 AM -03 7:05 PM -03
Crepúsculo náutico 5:56 AM -03 7:36 PM -03
Crepúsculo astronómico 5:26 AM -03 8:06 PM -03
Luna 1:37 AM -03 (9/13) 11:58 AM -03 (9/13)
Horas de luz 12h 38m
Horas de luz
11h 46m
Cuarto menguante, 46% of the Moon is Illuminated
Sep 13
Cuarto menguante
Sep 20
Nueva
Sep 27
Cuarto creciente
Oct 5
Luna llena
Oct 12
Cuarto menguante

Hourly Weather History & Observations

Hora (-03) Temp. Vientos helados Punto de rocío Humedad Presión Visibilidad Wind Dir Velocidad del viento Velocidad de ráfagas Precip Eventos Condiciones
12:00 AM 48 ° F - 47 ° F 94% 30.20 pul 6 mi NO 6.9 mph - -  
12:00 AM 48.2 ° F - 46.4 ° F 93% 30.18 pul - NO 6.9 mph - N/A   Despejado
1:00 AM 48.2 ° F - 46.4 ° F 93% 30.18 pul - NO 4.6 mph - N/A   Despejado
2:00 AM 46.4 ° F 45.2 ° F 44.6 ° F 93% 30.18 pul - NO 3.5 mph - N/A   Despejado
3:00 AM 45 ° F - 45 ° F 98% 30.17 pul 6 mi NNO 6.9 mph - -  
3:00 AM 46.4 ° F 42.9 ° F 44.6 ° F 93% 30.15 pul - NNO 6.9 mph - N/A   Despejado
4:00 AM 48.2 ° F - 46.4 ° F 93% 30.12 pul - NO 5.8 mph - N/A   Despejado
5:00 AM 48.2 ° F - 44.6 ° F 87% 30.12 pul - Norte 6.9 mph - N/A   Despejado
6:00 AM 47 ° F - 44 ° F 86% 30.12 pul 6 mi NNO 8.1 mph - -   Despejado
6:00 AM 48.2 ° F - 44.6 ° F 87% 30.09 pul - NNO 8.1 mph - N/A   Despejado
7:00 AM 46.4 ° F 42.9 ° F 44.6 ° F 93% 30.09 pul - NO 6.9 mph - N/A   Despejado
8:00 AM 48.2 ° F - 46.4 ° F 93% 30.12 pul - NNO 6.9 mph - N/A   Despejado
9:00 AM 52 ° F - 49 ° F 84% 30.12 pul 6 mi NNO 9.2 mph - -   Despejado
9:00 AM 51.8 ° F - 48.2 ° F 88% 30.09 pul - NNO 9.2 mph - N/A   Despejado
10:00 AM 57.2 ° F - 48.2 ° F 72% 30.09 pul - NNO 16.1 mph - N/A   Despejado
11:00 AM 60.8 ° F - 48.2 ° F 63% 30.06 pul - NNO 17.3 mph - N/A   Despejado
12:00 PM 62 ° F - 49 ° F 52% 30.07 pul 6 mi NNO 17.3 mph - -   Nubes dispersas
12:00 PM 62.6 ° F - 48.2 ° F 59% 30.06 pul 6.2 mi NNO 17.3 mph - N/A   Nubes dispersas
1:00 PM 62.6 ° F - 50.0 ° F 63% 30.04 pul 6.2 mi NNO 16.1 mph - N/A   Nubes dispersas
2:00 PM 64.4 ° F - 50.0 ° F 59% 30.01 pul 6.2 mi NNO 15.0 mph - N/A   Nubes dispersas
3:00 PM 64 ° F - 49 ° F 47% 29.98 pul 6 mi NNO 16.1 mph - -   Parcialmente nublado
3:00 PM 64.4 ° F - 48.2 ° F 56% 29.98 pul 6.2 mi NNO 16.1 mph - N/A   Nubes dispersas
4:00 PM 64.4 ° F - 48.2 ° F 56% 29.95 pul 6.2 mi NNO 13.8 mph - N/A   Parcialmente nublado
5:00 PM 64.4 ° F - 50.0 ° F 59% 29.92 pul 6.2 mi NNO 12.7 mph - N/A   Parcialmente nublado
6:00 PM 61 ° F - 49 ° F 54% 29.92 pul 6 mi NNO 10.4 mph - -   Nubes dispersas
6:00 PM 60.8 ° F - 48.2 ° F 63% 29.92 pul 6.2 mi NNO 10.4 mph - N/A   Parcialmente nublado
7:00 PM 59.0 ° F - 50.0 ° F 72% 29.92 pul 6.2 mi Norte 5.8 mph - N/A   Parcialmente nublado
8:00 PM 57.2 ° F - 50.0 ° F 77% 29.92 pul 6.2 mi Norte 6.9 mph - N/A   Parcialmente nublado
9:00 PM 53 ° F - 51 ° F 92% 29.92 pul 6 mi Norte 4.6 mph - -   Nubes dispersas
9:00 PM 55.4 ° F - 50.0 ° F 82% 29.92 pul 6.2 mi Norte 5.8 mph - N/A   Nubes dispersas